{"data":{"norad_id":45071,"intl_designator":"2020-006AD","name":"STARLINK-1167","alt_names":[],"object_type":"PAYLOAD","status":"ACTIVE","operator":null,"country":"US","launch_date":"2020-01-29","launch_site_code":"AFETR","launch_vehicle":null,"mission":null,"orbit_class":"UNKNOWN","rcs_meters":null,"size_class":null,"mass_kg":null,"dimensions":null,"purposes":["comms"],"wikipedia_slug":null,"has_3d_model":false,"image_url":null,"decayed_at":null,"tle_current":{"epoch":"2026-05-25T01:14:01.275360Z","epoch_age_seconds":73793,"freshness":"FRESH","line1":"1 45071U 20006AD  26145.05140365  .00043461  00000+0  12258-2 0  9994","line2":"2 45071  53.1570 261.7893 0002539 258.2311 101.8407 15.36002256348586","mean_motion":15.36002256,"eccentricity":0.0002539,"inclination_deg":53.157,"raan_deg":261.7893,"arg_perigee_deg":258.2311,"mean_anomaly_deg":101.8407,"bstar":0.0012258,"rev_number":34858,"period_min":93.74986230489,"perigee_km":456.20945665388,"apogee_km":459.68081916351,"semimajor_km":6836.0821379087,"source":"CELESTRAK","updated_at":"2026-05-25T13:38:16.378895Z"}}}